This is the latest recevied weather packets stored in our database for station/object KD9NSC. If no packets are shown the sender has not sent any weather packets the latest 10 day(s).
| Time | Temp. | Humidity | Pressure | Rain* | Wind** | Luminosity | Snow |
|---|---|---|---|---|---|---|---|
| 1777757276 | 10° C | 47% | 1019.5 hPa | 0 mm | - | 17 W/m² | - |
| 1777756974 | 10.56° C | 47% | 1019.5 hPa | 0 mm | - | 18 W/m² | - |
| 1777756669 | 10.56° C | 47% | 1019.5 hPa | 0 mm | - | 18 W/m² | - |
| 1777756367 | 10.56° C | 43% | 1019.6 hPa | 0 mm | - | 18 W/m² | - |
| 1777756064 | 10.56° C | 50% | 1019.6 hPa | 0 mm | - | 29 W/m² | - |
| 1777755761 | 11.11° C | 47% | 1019.9 hPa | 0 mm | - | 38 W/m² | - |
| 1777755458 | 10.56° C | 48% | 1019.7 hPa | 0 mm | - | 105 W/m² | - |
| 1777755154 | 11.11° C | 47% | 1019.8 hPa | 0 mm | - | 52 W/m² | - |
| 1777754852 | 10.56° C | 44% | 1019.7 hPa | 0 mm | - | 152 W/m² | - |
| 1777754549 | 10.56° C | 45% | 1019.7 hPa | 0 mm | - | 200 W/m² | - |
| 1777754247 | 10.56° C | 45% | 1019.9 hPa | 0 mm | - | 101 W/m² | - |
| 1777753945 | 10.56° C | 47% | 1019.8 hPa | 0 mm | - | 20 W/m² | - |
| 1777753638 | 10.56° C | 46% | 1019.9 hPa | 0 mm | - | 20 W/m² | - |
| 1777753337 | 10° C | 49% | 1020.1 hPa | 0 mm | - | 69 W/m² | - |
| 1777753034 | 10.56° C | 45% | 1020.2 hPa | 0 mm | - | 73 W/m² | - |
| 1777752730 | 10.56° C | 45% | 1020.2 hPa | 0 mm | - | 41 W/m² | - |
| 1777752426 | 10.56° C | 44% | 1020.3 hPa | 0 mm | - | 280 W/m² | - |
| 1777752123 | 10.56° C | 44% | 1020.4 hPa | 0 mm | - | 218 W/m² | - |
| 1777751821 | 10.56° C | 45% | 1020.4 hPa | 0 mm | - | 212 W/m² | - |
| 1777751517 | 10° C | 45% | 1020.5 hPa | 0 mm | - | 113 W/m² | - |
| 1777751214 | 10° C | 46% | 1020.6 hPa | 0 mm | - | 56 W/m² | - |
| 1777750911 | 10° C | 46% | 1020.6 hPa | 0 mm | - | 76 W/m² | - |
| 1777750607 | 10° C | 48% | 1020.7 hPa | 0 mm | - | 23 W/m² | - |
| 1777750304 | 10° C | 47% | 1020.8 hPa | 0 mm | - | 92 W/m² | - |
| 1777750000 | 9.44° C | 49% | 1020.8 hPa | 0 mm | - | 177 W/m² | - |
* Rain latest hour (hover to see other rain measurements)
** Current wind speed in m/s (hover to see current wind gust speed)